1486360800.17,41916,9.63,72602.3,-8.67,-38.35,-38.91,0,*5C
1486360801.4,41917,9.63,72598.5,-8.69,-38.35,-38.73,0,*5F
1486360802.63,41918,9.63,72598.8,-8.67,-38.35,-38.91,0,*52
1486360803.87,41919,9.63,72602.3,-8.69,-38.43,-38.97,0,*5A
1486360805.1,41920,9.63,72598.5,-8.69,-38.43,-38.97,0,*50
1486360806.39,41921,9.63,72600.8,-8.69,-38.29,-38.79,0,*5D
1486360807.62,41922,9.63,72606.0,-8.69,-38.35,-38.97,0,*53
1486360808.86,41923,9.63,72600.3,-8.71,-38.35,-38.91,0,*5D
1486360810.12,41924,9.63,72600.5,-8.69,-38.29,-38.61,0,*51
1486360811.35,41925,9.63,72598.5,-8.71,-38.29,-38.73,0,*5A
1486360812.59,41926,9.63,72600.0,-8.71,-37.99,-38.35,0,*5F
1486360813.86,41927,9.63,72602.8,-8.69,-37.93,-38.35,0,*5D
1486360815.1,41928,9.63,72606.0,-8.69,-38.17,-38.61,0,*50
1486360816.36,41929,9.63,72602.0,-8.69,-37.99,-38.43,0,*58
1486360817.62,41930,9.63,72602.0,-8.67,-37.93,-38.49,0,*5E
1486360818.89,41931,9.63,72600.5,-8.67,-38.29,-38.67,0,*5D
1486360820.14,41932,9.63,72604.3,-8.67,-38.23,-38.67,0,*54
1486360821.38,41933,9.63,72602.8,-8.69,-38.17,-38.61,0,*5A
1486360822.62,41934,9.63,72602.5,-8.67,-38.11,-38.55,0,*52
1486360823.88,41935,9.63,72602.0,-8.69,-38.11,-38.55,0,*5D
1486360825.14,41936,9.63,72600.8,-8.69,-38.35,-38.79,0,*56
1486360826.43,41937,9.63,72600.0,-8.69,-38.29,-38.79,0,*5A
1486360827.69,41938,9.63,72600.3,-8.69,-38.35,-38.79,0,*58
1486360828.95,41939,9.63,72604.3,-8.69,-38.43,-38.91,0,*5E
1486360830.21,41940,9.63,72602.0,-8.69,-38.35,-38.79,0,*57
1486360831.44,41941,9.63,72602.5,-8.69,-38.35,-38.73,0,*5C
1486360832.71,41942,9.63,72602.3,-8.69,-38.29,-38.55,0,*56
1486360833.98,41943,9.63,72600.8,-8.69,-38.29,-38.61,0,*50
1486360835.2,41944,9.63,72602.5,-8.69,-38.35,-38.73,0,*59
1486360836.44,41945,9.63,72602.8,-8.69,-38.17,-38.35,0,*5A
1486360837.68,41946,9.63,72602.5,-8.69,-38.35,-38.61,0,*58
1486360838.94,41947,9.63,72600.8,-8.69,-38.35,-38.79,0,*50
1486360840.2,41948,9.63,72606.0,-8.69,-38.55,-38.91,0,*5F
1486360841.46,41949,9.63,72606.3,-8.69,-38.55,-38.91,0,*5E
1486360842.7,41950,9.63,72604.5,-8.69,-38.55,-38.97,0,*50
1486360843.93,41951,9.63,72602.0,-8.69,-38.55,-38.97,0,*51
1486360845.17,41952,9.56,72600.3,-8.71,-38.43,-38.79,0,*5C
1486360846.41,41953,9.56,72600.3,-8.71,-38.55,-38.79,0,*5A
1486360847.61,41954,9.63,72606.0,-8.71,-38.55,-38.97,0,*5D
1486360848.85,41955,9.63,72602.3,-8.73,-38.61,-38.85,0,*5A
1486360850.06,41956,9.63,72604.8,-8.71,-38.43,-38.73,0,*52
1486360851.3,41957,9.63,72604.3,-8.71,-38.61,-38.91,0,*5F
1486360852.59,41958,9.63,72602.3,-8.73,-38.49,-38.79,0,*5E
1486360853.79,41959,9.63,72604.0,-8.71,-38.43,-38.73,0,*5D
1486360855.03,41960,9.56,72598.0,-8.71,-38.29,-38.55,0,*5F
1486360856.3,41961,9.63,72604.5,-8.73,-38.23,-38.43,0,*51
1486360857.54,41962,9.63,72602.5,-8.71,-38.29,-38.55,0,*5D
1486360858.75,41963,9.63,72602.5,-8.71,-38.35,-38.61,0,*56
1486360860.01,41964,9.63,72600.8,-8.73,-38.35,-38.49,0,*59
1486360861.25,41965,9.63,72602.5,-8.73,-38.35,-38.43,0,*52
1486360862.46,41966,9.63,72602.5,-8.71,-38.35,-38.55,0,*54
1486360863.67,41967,9.63,72598.0,-8.71,-38.17,-38.35,0,*53
1486360864.94,41968,9.63,72602.8,-8.73,-38.17,-38.23,0,*59
1486360866.17,41969,9.63,72602.5,-8.73,-38.17,-38.17,0,*5F
1486360867.41,41970,9.63,72600.0,-8.71,-38.29,-38.35,0,*58
1486360868.65,41971,9.63,72602.8,-8.71,-38.29,-38.35,0,*59
1486360869.9,41972,9.63,72604.0,-8.71,-38.29,-38.35,0,*5A
1486360871.16,41973,9.63,72604.0,-8.69,-38.17,-38.29,0,*52
1486360872.42,41974,9.63,72606.0,-8.69,-38.11,-38.43,0,*5F
1486360873.69,41975,9.63,72604.8,-8.67,-38.29,-38.29,0,*57
1486360874.93,41976,9.63,72604.0,-8.69,-38.17,-38.17,0,*5A
1486360876.19,41977,9.63,72606.3,-8.69,-38.17,-38.29,0,*56
1486360877.43,41978,9.63,72604.5,-8.71,-38.61,-38.79,0,*54
1486360878.65,41979,9.63,72606.5,-8.71,-38.43,-38.55,0,*5B
1486360879.89,41980,9.63,72604.5,-8.71,-38.43,-38.29,0,*56
1486360881.1,41981,9.63,72608.0,-8.71,-38.43,-38.43,0,*5B
1486360882.3,41982,9.63,72610.0,-8.71,-38.55,-38.73,0,*5C
1486360883.57,41983,9.56,72604.0,-8.73,-38.49,-38.43,0,*51
1486360884.81,41984,9.63,72606.3,-8.71,-38.29,-38.35,0,*53
1486360886.08,41985,9.63,72608.5,-8.71,-38.29,-38.29,0,*5F
1486360887.32,41986,9.63,72604.0,-8.69,-38.17,-38.17,0,*55
1486360888.58,41987,9.63,72604.5,-8.69,-38.35,-38.29,0,*59
1486360889.79,41988,9.63,72606.3,-8.71,-38.55,-38.61,0,*55
1486360891.01,41989,9.56,72602.8,-8.71,-38.61,-38.61,0,*53
1486360892.22,41990,9.63,72606.8,-8.71,-38.55,-38.55,0,*5B
1486360893.44,41991,9.63,72604.8,-8.71,-38.61,-38.61,0,*5A
1486360894.65,41992,9.63,72604.8,-8.71,-38.61,-38.55,0,*5E
1486360895.86,41993,9.63,72612.3,-8.71,-38.55,-38.61,0,*5F
1486360897.07,41994,9.63,72606.8,-8.71,-38.35,-38.35,0,*5F
1486360898.31,41995,9.63,72604.3,-8.73,-38.35,-38.17,0,*5C
1486360899.54,41996,9.63,72604.3,-8.71,-38.35,-38.29,0,*50
1486360900.81,41997,9.63,72600.3,-8.71,-38.29,-37.99,0,*58
1486360902.08,41998,9.63,72606.5,-8.73,-38.43,-38.49,0,*5B
1486360903.31,41999,9.63,72610.0,-8.73,-38.43,-38.43,0,*50
1486360904.55,42000,9.63,72612.0,-8.73,-38.35,-38.17,0,*5A
1486360905.81,42001,9.63,72612.8,-8.73,-37.45,-37.21,0,*59
1486360907.05,42002,9.63,72614.3,-8.71,-37.21,-36.97,0,*56
1486360908.29,42003,9.63,72612.8,-8.69,-37.15,-36.97,0,*59
1486360909.52,42004,9.63,72612.8,-8.69,-37.15,-36.85,0,*5D
1486360910.76,42005,9.56,72610.3,-8.67,-37.21,-36.97,0,*56
1486360912.02,42006,9.63,72610.5,-8.67,-37.39,-37.39,0,*59
1486360913.28,42007,9.63,72608.8,-8.67,-37.93,-37.93,0,*58
1486360914.55,42008,9.63,72606.8,-8.67,-38.29,-38.29,0,*57
1486360915.81,42009,9.63,72606.0,-8.67,-38.23,-38.11,0,*57
1486360917.04,42010,9.63,72606.3,-8.67,-38.05,-37.93,0,*5E
1486360918.27,42011,9.63,72606.3,-8.67,-37.69,-37.57,0,*52
1486360919.51,42012,9.63,72606.0,-8.67,-37.69,-37.57,0,*51
1486360920.77,42013,9.63,72602.5,-8.65,-37.69,-37.57,0,*52
1486360922.0,42014,9.63,72600.3,-8.65,-37.75,-37.57,0,*58
1486360923.26,42015,9.63,72602.3,-8.65,-37.93,-37.75,0,*51
1486360924.5,42016,9.63,72604.8,-8.65,-38.05,-37.87,0,*5F
1486360925.79,42017,9.63,72600.5,-8.65,-37.69,-37.51,0,*50
1486360927.02,42018,9.63,72602.8,-8.65,-37.75,-37.57,0,*54
1486360928.29,42019,9.63,72604.0,-8.63,-37.81,-37.63,0,*5F
1486360929.53,42020,9.63,72602.8,-8.63,-37.93,-37.75,0,*51
1486360930.8,42021,9.63,72604.8,-8.63,-37.81,-37.63,0,*54
1486360932.07,42022,9.63,72600.8,-8.63,-37.81,-37.63,0,*57
1486360933.32,42023,9.63,72602.3,-8.61,-37.51,-37.45,0,*5D
1486360934.58,42024,9.63,72600.0,-8.61,-37.45,-37.09,0,*57
1486360935.84,42025,9.63,72602.3,-8.61,-37.51,-37.27,0,*5F
1486360937.07,42026,9.63,72606.3,-8.59,-37.39,-37.27,0,*59
1486360938.36,42027,9.63,72600.5,-8.61,-37.99,-37.81,0,*55
1486360939.65,42028,9.63,72604.8,-8.61,-37.99,-37.81,0,*5A
1486360940.95,42029,9.63,72604.5,-8.61,-37.81,-37.51,0,*5F
1486360942.21,42030,9.63,72602.8,-8.61,-37.51,-37.33,0,*5E
1486360943.5,42031,9.56,72600.3,-8.61,-37.51,-37.09,0,*56
1486360944.75,42032,9.56,72598.0,-8.59,-37.63,-37.39,0,*5C
1486360945.98,42033,9.63,72600.5,-8.59,-37.93,-37.75,0,*5A
1486360947.21,42034,9.56,72592.8,-8.59,-38.11,-37.75,0,*58
1486360948.47,42035,9.63,72598.8,-8.59,-37.93,-37.63,0,*5B
1486360949.73,42036,9.63,72594.5,-8.59,-37.99,-37.63,0,*52
1486360950.96,42037,9.63,72596.0,-8.59,-37.99,-37.75,0,*54
1486360952.17,42038,9.63,72592.5,-8.59,-38.17,-37.75,0,*52
1486360953.4,42039,9.63,72594.0,-8.59,-38.17,-37.81,0,*58
1486360954.65,42040,9.63,72598.0,-8.59,-38.23,-38.11,0,*57
1486360955.85,42041,9.63,72596.3,-8.59,-38.55,-38.17,0,*51
1486360957.08,42042,9.63,72596.8,-8.59,-38.49,-38.17,0,*5F
1486360958.33,42043,9.63,72596.0,-8.59,-38.23,-37.93,0,*51
1486360959.62,42044,9.63,72600.5,-8.61,-38.23,-37.99,0,*57
1486360960.88,42045,9.63,72598.0,-8.59,-38.29,-38.11,0,*58
1486360962.1,42046,9.63,72598.5,-8.59,-38.35,-38.11,0,*56
1486360963.31,42047,9.63,72600.3,-8.59,-38.55,-38.35,0,*57
1486360964.57,42048,9.63,72602.3,-8.61,-38.61,-38.23,0,*53
1486360965.81,42049,9.63,72600.3,-8.59,-38.55,-38.23,0,*5E
1486360967.1,42050,9.56,72596.3,-8.61,-38.79,-38.49,0,*5F
1486360968.39,42051,9.56,72598.5,-8.61,-38.67,-38.29,0,*57
1486360969.68,42052,9.63,72602.0,-8.61,-38.67,-38.23,0,*5E
1486360970.88,42053,9.63,72602.3,-8.59,-38.55,-38.17,0,*52
1486360972.08,42054,9.63,72600.5,-8.59,-38.55,-38.17,0,*55
1486360973.38,42055,9.63,72600.0,-8.61,-38.49,-38.23,0,*55
1486360974.67,42056,9.56,72602.3,-8.61,-38.29,-37.99,0,*5E
1486360975.93,42057,9.63,72604.3,-8.61,-38.29,-38.05,0,*55
1486360977.17,42058,9.63,72606.8,-8.61,-38.61,-38.17,0,*55
1486360978.4,42059,9.63,72606.5,-8.61,-38.43,-38.05,0,*57
1486360979.69,42060,9.56,72606.8,-8.61,-38.67,-38.29,0,*55
1486360980.93,42061,9.63,72606.8,-8.61,-38.43,-38.05,0,*5C
1486360982.19,42062,9.63,72606.8,-8.63,-38.29,-37.81,0,*52
1486360983.45,42063,9.63,72606.3,-8.63,-38.23,-37.81,0,*59
1486360984.71,42064,9.56,72600.0,-8.65,-38.29,-37.87,0,*54
1486360985.95,42065,9.63,72606.5,-8.61,-38.61,-38.05,0,*58
1486360987.21,42066,9.63,72606.0,-8.61,-38.49,-38.05,0,*51
1486360988.49,42067,9.63,72604.5,-8.61,-38.23,-37.69,0,*59
1486360989.76,42068,9.63,72604.0,-8.61,-38.23,-37.87,0,*56
1486360990.99,42069,9.63,72606.5,-8.63,-38.49,-38.05,0,*5C
1486360992.26,42070,9.56,72604.3,-8.63,-38.29,-37.99,0,*58
1486360993.47,42071,9.63,72608.0,-8.63,-38.61,-38.17,0,*5C
1486360994.67,42072,9.56,72606.3,-8.63,-38.61,-38.17,0,*5F
1486360995.91,42073,9.63,72608.5,-8.63,-38.29,-37.87,0,*54
1486360997.18,42074,9.56,72602.8,-8.63,-38.29,-37.81,0,*55
1486360998.41,42075,9.63,72610.5,-8.63,-38.49,-38.05,0,*51
1486360999.67,42076,9.63,72610.3,-8.63,-38.67,-38.23,0,*5A
1486361000.93,42077,9.56,72604.5,-8.63,-38.91,-38.29,0,*58
1486361002.14,42078,9.56,72606.5,-8.63,-38.61,-38.17,0,*55
1486361003.35,42079,9.56,72604.0,-8.63,-38.43,-37.87,0,*52
1486361004.56,42080,9.56,72606.8,-8.63,-38.43,-37.87,0,*54
1486361005.83,42081,9.63,72610.3,-8.63,-38.29,-37.81,0,*5F
1486361007.06,42082,9.63,72610.5,-8.63,-38.43,-37.99,0,*59
1486361008.35,42083,9.63,72608.3,-8.65,-38.49,-37.93,0,*5E
1486361009.59,42084,9.63,72608.0,-8.65,-38.35,-37.87,0,*57
1486361010.85,42085,9.63,72608.8,-8.63,-38.29,-37.81,0,*5B
1486361012.11,42086,9.63,72608.3,-8.65,-38.23,-37.75,0,*5F
1486361013.37,42087,9.56,72606.8,-8.65,-38.05,-37.51,0,*5C
1486361014.63,42088,9.63,72608.8,-8.63,-38.23,-37.81,0,*5C
1486361015.86,42089,9.56,72602.5,-8.63,-37.99,-37.33,0,*5A
1486361017.09,42090,9.63,72604.5,-8.65,-38.05,-37.57,0,*5C
1486361018.33,42091,9.56,72602.3,-8.63,-38.17,-37.63,0,*5F
1486361019.59,42092,9.63,72604.5,-8.63,-38.23,-37.81,0,*57
1486361020.85,42093,9.56,72604.8,-8.63,-38.29,-37.81,0,*5C
1486361022.09,42094,9.63,72606.8,-8.63,-38.17,-37.63,0,*5A
1486361023.35,42095,9.56,72604.8,-8.63,-38.23,-37.81,0,*50
1486361024.64,42096,9.63,72608.0,-8.65,-38.49,-37.93,0,*5A
1486361025.87,42097,9.63,72606.3,-8.65,-38.55,-38.05,0,*56
1486361027.13,42098,9.63,72604.5,-8.65,-38.35,-37.93,0,*5F
1486361028.37,42099,9.63,72604.3,-8.63,-38.29,-37.87,0,*50
1486361029.58,42100,9.63,72600.8,-8.63,-38.61,-38.17,0,*5B
1486361030.83,42101,9.56,72600.8,-8.65,-38.73,-38.11,0,*59
1486361032.09,42102,9.63,72600.3,-8.65,-38.73,-38.23,0,*5B
1486361033.38,42103,9.56,72600.8,-8.65,-38.49,-37.93,0,*57
1486361034.62,42104,9.63,72602.8,-8.63,-38.29,-37.87,0,*55
1486361035.85,42105,9.63,72604.0,-8.65,-38.55,-38.05,0,*5C
1486361037.13,42106,9.56,72600.3,-8.65,-38.67,-38.11,0,*5B
1486361038.38,42107,9.63,72604.5,-8.65,-38.73,-38.11,0,*5F
1486361039.61,42108,9.63,72604.5,-8.65,-38.35,-37.75,0,*5F
1486361040.9,42109,9.63,72608.3,-8.65,-38.23,-37.51,0,*5F
1486361042.14,42110,9.56,72604.0,-8.67,-38.29,-37.75,0,*59
1486361043.4,42111,9.63,72606.5,-8.67,-38.29,-37.69,0,*55
1486361044.63,42112,9.63,72606.5,-8.65,-38.35,-37.87,0,*59
1486361045.89,42113,9.63,72604.8,-8.65,-38.35,-37.93,0,*5D
1486361047.12,42114,9.56,72602.0,-8.65,-38.35,-37.87,0,*5F
1486361048.38,42115,9.63,72608.0,-8.65,-38.05,-37.39,0,*58
1486361049.64,42116,9.63,72606.3,-8.65,-37.69,-36.97,0,*5B
1486361050.9,42117,9.63,72604.8,-8.63,-37.93,-37.09,0,*5F
1486361052.17,42118,9.63,72604.5,-8.65,-37.87,-37.09,0,*53
1486361053.43,42119,9.56,72604.0,-8.65,-38.05,-37.51,0,*5A
1486361054.68,42120,9.63,72606.8,-8.65,-38.11,-37.57,0,*53
1486361055.95,42121,9.56,72606.5,-8.63,-38.23,-37.63,0,*52
1486361057.15,42122,9.63,72608.5,-8.63,-38.17,-37.45,0,*52
1486361058.41,42123,9.63,72608.5,-8.65,-38.05,-37.09,0,*5E
1486361059.62,42124,9.63,72604.3,-8.63,-37.87,-37.27,0,*56
1486361060.82,42125,9.63,72608.0,-8.63,-38.05,-37.33,0,*57
1486361062.06,42126,9.63,72606.3,-8.63,-38.17,-37.63,0,*52
1486361063.32,42127,9.63,72606.3,-8.61,-37.99,-37.33,0,*5D
1486361064.58,42128,9.63,72606.3,-8.63,-38.23,-37.63,0,*5B
1486361065.83,42129,9.63,72602.8,-8.63,-38.23,-37.69,0,*50
1486361067.1,42130,9.63,72604.8,-8.63,-38.29,-37.63,0,*58
1486361068.33,42131,9.56,72602.8,-8.63,-37.99,-37.33,0,*58
1486361069.56,42132,9.63,72602.3,-8.61,-38.05,-37.45,0,*52
1486361070.79,42133,9.56,72600.5,-8.61,-38.05,-37.45,0,*53
1486361072.05,42134,9.56,72600.5,-8.61,-37.99,-37.33,0,*5F
1486361073.29,42135,9.63,72604.0,-8.61,-38.05,-37.33,0,*54
1486361074.52,42136,9.56,72602.3,-8.61,-38.05,-37.33,0,*57
1486361075.78,42137,9.63,72606.5,-8.61,-38.23,-37.45,0,*53
1486361077.0,42138,9.63,72606.8,-8.59,-38.11,-37.27,0,*52
1486361078.29,42139,9.63,72606.0,-8.61,-38.23,-37.51,0,*58
1486361079.55,42140,9.63,72608.0,-8.61,-38.17,-37.51,0,*51
1486361080.82,42141,9.56,72604.5,-8.61,-38.05,-37.39,0,*5D
1486361082.08,42142,9.63,72606.5,-8.61,-38.05,-37.09,0,*5D
1486361083.35,42143,9.56,72606.8,-8.61,-37.87,-37.09,0,*59
1486361084.61,42144,9.63,72606.8,-8.59,-37.81,-37.21,0,*59
1486361085.86,42145,9.56,72606.8,-8.59,-38.11,-37.39,0,*57
1486361087.13,42146,9.63,72606.8,-8.59,-37.81,-37.09,0,*51
1486361088.36,42147,9.63,72606.3,-8.59,-37.93,-37.03,0,*59
1486361089.58,42148,9.63,72606.5,-8.59,-37.99,-37.27,0,*5A
1486361090.84,42149,9.63,72604.8,-8.59,-37.93,-37.21,0,*57
1486361092.05,42150,9.63,72602.0,-8.59,-37.87,-37.03,0,*5A
1486361093.3,42151,9.63,72602.3,-8.59,-37.99,-37.39,0,*5D
1486361094.51,42152,9.63,72600.0,-8.59,-38.17,-37.57,0,*5F
1486361095.74,42153,9.63,72604.0,-8.55,-38.23,-37.57,0,*55
1486361096.94,42154,9.56,72602.3,-8.59,-38.43,-37.75,0,*58
1486361098.18,42155,9.56,72602.8,-8.59,-38.61,-37.81,0,*52
1486361099.41,42156,9.63,72606.0,-8.59,-38.55,-37.81,0,*56
1486361100.67,42157,9.56,72604.3,-8.61,-38.29,-37.45,0,*5F
1486361101.93,42158,9.63,72604.3,-8.61,-38.29,-37.45,0,*50
1486361103.22,42159,9.63,72606.0,-8.61,-37.99,-37.09,0,*5D
1486361104.45,42160,9.56,72604.3,-8.59,-37.81,-37.03,0,*5F
1486361105.72,42161,9.63,72606.0,-8.61,-37.87,-36.91,0,*59
1486361106.97,42162,9.56,72606.3,-8.59,-38.11,-37.39,0,*52
1486361108.23,42163,9.63,72608.5,-8.61,-38.23,-37.45,0,*52
1486361109.46,42164,9.63,72604.5,-8.59,-38.17,-37.39,0,*52
1486361110.69,42165,9.63,72606.3,-8.59,-38.23,-37.57,0,*5C
1486361111.92,42166,9.63,72606.3,-8.55,-38.35,-37.63,0,*53
1486361113.13,42167,9.63,72608.0,-8.59,-38.43,-37.75,0,*58
1486361114.38,42168,9.56,72604.0,-8.61,-38.43,-37.69,0,*51
1486361115.68,42169,9.63,72608.0,-8.61,-38.49,-37.81,0,*5C
1486361116.91,42170,9.63,72606.8,-8.59,-38.43,-37.63,0,*59
1486361118.21,42171,9.63,72608.8,-8.61,-38.29,-37.63,0,*5F
1486361119.41,42172,9.63,72606.8,-8.59,-38.43,-37.75,0,*5C
1486361120.7,42173,9.63,72610.0,-8.61,-38.49,-37.69,0,*51
1486361122.0,42174,9.56,72606.3,-8.61,-38.29,-37.63,0,*5A
1486361123.26,42175,9.63,72608.5,-8.59,-38.29,-37.63,0,*50
1486361124.46,42176,9.63,72608.3,-8.59,-38.35,-37.45,0,*5A
1486361125.72,42177,9.56,72606.5,-8.61,-38.61,-37.81,0,*59
1486361126.99,42178,9.56,72602.3,-8.61,-38.61,-37.81,0,*56
1486361128.23,42179,9.56,72606.0,-8.63,-38.61,-37.81,0,*55
1486361129.46,42180,9.63,72604.3,-8.65,-38.55,-37.75,0,*59
1486361130.7,42181,9.63,72610.5,-8.63,-38.43,-37.51,0,*5F
1486361131.97,42182,9.63,72604.8,-8.61,-38.61,-37.81,0,*53
1486361133.22,42183,9.56,72606.0,-8.61,-38.29,-37.45,0,*56
1486361134.46,42184,9.56,72604.5,-8.63,-38.29,-37.45,0,*53
1486361135.68,42185,9.63,72608.0,-8.63,-38.29,-37.45,0,*52
1486361136.92,42186,9.56,72602.3,-8.65,-38.35,-37.57,0,*59
1486361138.15,42187,9.63,72604.3,-8.63,-38.23,-37.33,0,*5B
1486361139.37,42188,9.63,72606.3,-8.63,-38.43,-37.69,0,*5D
1486361140.61,42189,9.56,72604.5,-8.63,-38.43,-37.63,0,*56
1486361141.84,42190,9.56,72600.0,-8.63,-37.99,-37.27,0,*56
1486361143.08,42191,9.63,72604.0,-8.63,-37.87,-36.91,0,*54
1486361144.32,42192,9.63,72606.5,-8.65,-37.87,-36.97,0,*57
1486361145.57,42193,9.56,72602.0,-8.61,-38.23,-37.45,0,*5D
1486361146.8,42194,9.63,72602.3,-8.63,-38.17,-37.09,0,*57
1486361148.01,42195,9.63,72604.5,-8.63,-38.05,-37.27,0,*59
1486361149.21,42196,9.63,72604.8,-8.63,-38.17,-37.45,0,*5D
1486361150.44,42197,9.63,72604.8,-8.63,-38.23,-37.33,0,*5A
1486361151.7,42198,9.63,72608.8,-8.65,-38.29,-37.33,0,*59
1486361152.96,42199,9.56,72604.0,-8.63,-38.29,-37.51,0,*5A
1486361154.23,42200,9.63,72608.0,-8.63,-38.29,-37.51,0,*59
1486361155.46,42201,9.56,72604.8,-8.63,-38.43,-37.51,0,*54
1486361156.69,42202,9.63,72608.5,-8.63,-38.29,-37.45,0,*5E
1486361157.92,42203,9.56,72604.0,-8.63,-38.29,-37.45,0,*5F
1486361159.15,42204,9.56,72610.0,-8.65,-38.35,-37.57,0,*50
1486361160.38,42205,9.63,72610.8,-8.63,-38.23,-37.33,0,*52
1486361161.64,42206,9.63,72608.8,-8.65,-38.23,-37.15,0,*53
1486361162.9,42207,9.56,72608.3,-8.65,-38.11,-37.15,0,*53
1486361164.13,42208,9.56,72608.0,-8.63,-38.05,-37.09,0,*52
1486361165.37,42209,9.63,72608.8,-8.65,-37.87,-36.97,0,*56
1486361166.63,42210,9.63,72608.3,-8.63,-37.81,-36.91,0,*58
1486361167.89,42211,9.56,72610.5,-8.65,-38.05,-37.09,0,*5C
1486361169.15,42212,9.56,72606.8,-8.63,-37.99,-36.91,0,*53
1486361170.39,42213,9.63,72610.3,-8.63,-37.51,-36.67,0,*5F
1486361171.6,42214,9.56,72604.3,-8.63,-37.45,-36.55,0,*5C
1486361172.83,42215,9.56,72608.0,-8.63,-37.45,-36.49,0,*50
1486361174.06,42216,9.63,72610.0,-8.63,-37.45,-36.49,0,*53
1486361175.33,42217,9.56,72606.8,-8.61,-37.51,-36.55,0,*58
1486361176.6,42218,9.56,72606.3,-8.61,-37.63,-36.67,0,*57
1486361177.86,42219,9.56,72604.5,-8.61,-37.69,-36.67,0,*5C
1486361179.13,42220,9.56,72604.5,-8.61,-38.05,-37.09,0,*5A
1486361180.39,42221,9.63,72610.3,-8.61,-38.05,-37.09,0,*5B
1486361181.65,42222,9.56,72604.3,-8.61,-38.05,-36.91,0,*58
1486361182.88,42223,9.56,72606.5,-8.59,-37.93,-36.97,0,*54
1486361184.14,42224,9.56,72608.8,-8.61,-37.99,-37.03,0,*5E
1486361185.37,42225,9.63,72608.0,-8.59,-37.99,-36.97,0,*58
1486361186.63,42226,9.63,72608.8,-8.61,-38.23,-37.27,0,*54
1486361187.89,42227,9.56,72608.0,-8.61,-38.17,-37.09,0,*5E
1486361189.16,42228,9.63,72610.5,-8.61,-37.87,-36.91,0,*57
1486361190.38,42229,9.56,72606.5,-8.59,-37.93,-36.97,0,*5E
1486361191.62,42230,9.63,72608.8,-8.61,-38.05,-37.03,0,*51
1486361192.84,42231,9.63,72608.0,-8.59,-38.23,-37.45,0,*5D
1486361194.1,42232,9.63,72608.0,-8.61,-38.23,-37.33,0,*54
1486361195.3,42233,9.63,72608.8,-8.63,-38.17,-37.27,0,*55
1486361196.54,42234,9.56,72606.8,-8.61,-38.17,-37.03,0,*56
1486361197.77,42235,9.56,72602.5,-8.59,-38.17,-37.21,0,*5C
1486361199.03,42236,9.63,72608.8,-8.61,-38.05,-36.91,0,*5D
1486361200.3,42237,9.63,72604.8,-8.61,-37.81,-36.73,0,*53
1486361201.57,42238,9.56,72606.5,-8.61,-37.63,-36.55,0,*54
1486361202.84,42239,9.63,72606.8,-8.61,-37.69,-36.55,0,*5F
1486361204.08,42240,9.63,72606.5,-8.61,-37.87,-37.03,0,*53
1486361205.37,42241,9.56,72602.8,-8.61,-37.99,-36.91,0,*57
1486361206.61,42242,9.63,72606.0,-8.61,-38.05,-37.03,0,*54
1486361207.84,42243,9.63,72606.5,-8.61,-38.17,-37.03,0,*56
1486361209.07,42244,9.63,72604.8,-8.59,-38.11,-37.03,0,*5C
1486361210.36,42245,9.56,72604.5,-8.61,-38.23,-37.09,0,*5D
1486361211.56,42246,9.63,72606.5,-8.63,-38.17,-37.27,0,*57
1486361212.82,42247,9.63,72608.5,-8.61,-38.23,-37.27,0,*53
1486361214.08,42248,9.56,72602.0,-8.61,-38.29,-37.33,0,*53
1486361215.34,42249,9.63,72606.8,-8.61,-38.29,-37.33,0,*52
1486361216.61,42250,9.63,72606.0,-8.61,-38.29,-37.33,0,*5A
1486361217.86,42251,9.63,72606.8,-8.65,-38.29,-37.33,0,*5F
1486361219.09,42252,9.63,72608.8,-8.63,-37.99,-36.85,0,*52
1486361220.34,42253,9.56,72608.5,-8.61,-37.87,-36.67,0,*52
1486361221.58,42254,9.56,72606.8,-8.59,-37.81,-36.67,0,*58
1486361222.79,42255,9.63,72608.5,-8.63,-37.87,-36.85,0,*5A
1486361224.03,42256,9.56,72604.5,-8.61,-37.87,-36.85,0,*5B
1486361225.29,42257,9.56,72606.0,-8.61,-37.99,-36.85,0,*55
1486361226.53,42258,9.63,72610.0,-8.61,-37.87,-36.85,0,*55
1486361227.8,42259,9.63,72608.5,-8.61,-37.63,-36.55,0,*53
1486361229.07,42260,9.56,72604.0,-8.61,-37.63,-36.55,0,*59
1486361230.34,42261,9.63,72610.0,-8.61,-37.51,-36.55,0,*59
1486361231.6,42262,9.63,72610.5,-8.61,-37.69,-36.67,0,*50
1486361232.87,42263,9.63,72610.5,-8.61,-37.63,-36.55,0,*5A
1486361234.13,42264,9.63,72610.5,-8.59,-37.81,-36.61,0,*5D
1486361235.39,42265,9.56,72610.0,-8.59,-37.81,-36.61,0,*5C
1486361236.66,42266,9.63,72610.5,-8.61,-37.81,-36.73,0,*57
1486361237.87,42267,9.56,72606.5,-8.59,-37.75,-36.67,0,*53
1486361239.12,42268,9.63,72608.5,-8.61,-37.87,-36.67,0,*5A
1486361240.39,42269,9.63,72610.0,-8.61,-37.81,-36.55,0,*5C
1486361241.65,42270,9.63,72608.8,-8.59,-37.63,-36.49,0,*5E
1486361242.87,42271,9.63,72612.5,-8.59,-37.57,-36.49,0,*58
1486361244.1,42272,9.63,72614.0,-8.59,-37.45,-36.37,0,*51
1486361245.3,42273,9.63,72612.8,-8.59,-37.45,-36.31,0,*56
1486361246.5,42274,9.63,72614.8,-8.59,-37.57,-36.43,0,*57
1486361247.74,42275,9.63,72612.8,-8.59,-37.63,-36.43,0,*51
1486361248.99,42276,9.63,72612.3,-8.59,-37.63,-36.49,0,*58
1486361250.21,42277,9.56,72612.5,-8.59,-37.75,-36.49,0,*5E
1486361251.42,42278,9.63,72612.8,-8.59,-37.45,-36.43,0,*58
1486361252.64,42279,9.56,72608.8,-8.59,-37.45,-36.37,0,*5A
1486361253.84,42280,9.63,72614.0,-8.59,-37.57,-36.43,0,*5C
1486361255.05,42281,9.56,72610.5,-8.59,-37.57,-36.43,0,*5D
1486361256.3,42282,9.56,72610.0,-8.59,-37.63,-36.49,0,*53
1486361257.53,42283,9.56,72608.0,-8.59,-37.27,-36.25,0,*58
1486361258.74,42284,9.56,72608.8,-8.55,-37.45,-36.31,0,*52
1486361259.95,42285,9.63,72612.5,-8.55,-37.45,-36.31,0,*53
1486361261.21,42286,9.63,72608.8,-8.55,-37.63,-36.61,0,*51
1486361262.43,42287,9.56,72610.5,-8.55,-37.75,-36.61,0,*57
1486361263.68,42288,9.56,72610.0,-8.55,-37.81,-36.67,0,*55
1486361264.92,42289,9.63,72608.8,-8.55,-37.93,-36.67,0,*57
1486361266.15,42290,9.56,72604.5,-8.55,-37.75,-36.49,0,*5B
1486361267.4,42291,9.56,72610.3,-8.55,-37.63,-36.61,0,*57
1486361268.66,42292,9.56,72608.3,-8.55,-37.63,-36.49,0,*5E
1486361269.92,42293,9.56,72606.5,-8.55,-37.63,-36.61,0,*55
1486361271.18,42294,9.63,72608.8,-8.51,-37.69,-36.43,0,*5C
1486361272.41,42295,9.56,72608.3,-8.55,-37.63,-36.43,0,*53
1486361273.67,42296,9.56,72608.0,-8.55,-37.63,-36.61,0,*50
1486361274.9,42297,9.56,72608.3,-8.55,-37.75,-36.49,0,*5C
1486361276.16,42298,9.56,72608.3,-8.55,-37.81,-36.61,0,*52
1486361277.42,42299,9.56,72610.8,-8.55,-37.63,-36.49,0,*55
1486361278.62,42300,9.56,72606.5,-8.55,-37.57,-36.31,0,*5C
1486361279.89,42301,9.56,72610.8,-8.55,-37.39,-36.25,0,*50
1486361281.17,42302,9.56,72608.3,-8.51,-37.39,-36.37,0,*54
1486361282.46,42303,9.56,72610.5,-8.51,-37.39,-36.25,0,*56
1486361283.71,42304,9.63,72612.5,-8.55,-37.63,-36.49,0,*50
1486361284.94,42305,9.63,72612.0,-8.55,-37.57,-36.49,0,*56
1486361286.18,42306,9.56,72608.5,-8.55,-37.63,-36.31,0,*5D
1486361287.41,42307,9.63,72612.8,-8.51,-37.33,-36.07,0,*58
1486361288.62,42308,9.56,72610.5,-8.55,-37.45,-36.43,0,*52
1486361289.82,42309,9.56,72614.8,-8.55,-37.57,-36.43,0,*50
1486361291.03,42310,9.56,72614.0,-8.55,-37.45,-36.31,0,*5E
1486361292.29,42311,9.56,72612.3,-8.51,-37.21,-36.07,0,*5C
1486361293.54,42312,9.63,72614.5,-8.51,-36.97,-35.77,0,*57
1486361294.8,42313,9.63,72618.0,-8.51,-37.03,-35.83,0,*51
1486361296.1,42314,9.63,72618.5,-8.51,-37.21,-35.95,0,*51
1486361297.37,42315,9.63,72614.8,-8.51,-37.03,-35.83,0,*57
1486361298.61,42316,9.63,72618.3,-8.51,-36.97,-35.77,0,*53
1486361299.89,42317,9.56,72610.8,-8.51,-37.21,-36.01,0,*5C
1486361301.15,42318,9.56,72612.5,-8.51,-37.21,-36.19,0,*5A
1486361302.36,42319,9.63,72612.8,-8.49,-37.33,-36.19,0,*51
1486361303.59,42320,9.56,72614.0,-8.47,-37.45,-36.19,0,*54
1486361304.81,42321,9.56,72612.3,-8.49,-37.33,-36.01,0,*53
1486361306.05,42322,9.56,72608.8,-8.47,-37.33,-36.01,0,*5E